Regional Weather Roundup
Issued by NWS

Home | Current Version | Previous Version | Graphics & Text | Print | Product List | Glossary On
Versions: 1 2 3 4 5 6 7 8 9 10 11 12 13 14 15 16 17 18 19 20 21 22 23 24 25 26 27 28 29 30 31 32 33 34 35 36 37 38 39 40 41 42 43 44 45 46 47 48 49 50
000
ASUS43 KIND 212009
RWRIN

WEATHER ROUNDUP FOR INDIANA
NATIONAL WEATHER SERVICE INDIANAPOLIS IN
400 PM EDT SUN SEP 21 2014

NOTE: "FAIR" INDICATES FEW OR NO CLOUDS BELOW 12,000 FEET WITH NO
SIGNIFICANT WEATHER AND/OR OBSTRUCTIONS TO VISIBILITY.

* - STATION DOES NOT REPORT WEATHER SUCH AS PRECIPITATION OR FOG.

+ - STATION NOT QUALITY CONTROLLED BY THE NATIONAL WEATHER SERVICE.
    USE DATA WITH CAUTION...ESPECIALLY DEWPOINT AND RELATIVE
    HUMIDITY OBSERVATIONS.

INZ001>003-010>013-019-020-212100-
NORTHWEST INDIANA

CITY           SKY/WX    TMP DP  RH WIND       PRES   REMARKS
GARY /AIRPORT/ PTSUNNY   63  50  63 N12G23    29.96R
KNOX *+        PTSUNNY   58  53  84 NW14G22   29.93R
LA PORTE +     CLOUDY    59  50  72 N18G25    29.94R
MICHIGAN CITY+ CLOUDY    61  46  59 N21G30    29.95R
MONTICELLO +   PTSUNNY   64  52  65 NW14      29.93S
RENSSELAER +   MOSUNNY   66  54  63 NW10G18   29.94F
VALPARAISO     PTSUNNY   62  49  62 NW10G26   29.94R

$$

LMZ046-743>745-212100-
SOUTHERN LAKE MICHIGAN

STATION/POSITION TIME  TEMP WIND        PRES
                       AIR  DIR/SP/G
                 (UTC) (F)  (DEG/KT/KT) (MB)
MICHIGAN CITY    2000   60  330/ 31/ 37   N/A

$$

INZ004-005-014>016-021>024-212100-
NORTH CENTRAL INDIANA

CITY           SKY/WX    TMP DP  RH WIND       PRES   REMARKS
ELKHART        PTSUNNY   59  54  82 NW17G24   29.90
GOSHEN         LGT RAIN N/A N/A N/A NW17G29   29.88R
LOGANSPORT +   PTSUNNY   63  50  63 NW12G22   29.94R
PERU/GRISSOM   CLOUDY    63  54  72 NW20      29.92R
ROCHESTER +    PTSUNNY   64  52  63 NW18G28   29.92R
SOUTH BEND     CLOUDY    60  52  74 N20       29.92R
WARSAW +       CLOUDY    59  55  88 NW15G24   29.89R

$$

INZ006>009-017-018-025>027-212100-
NORTHEAST INDIANA

CITY           SKY/WX    TMP DP  RH WIND       PRES   REMARKS
ANGOLA *+      PTSUNNY   63  54  72 NW18      29.83R
AUBURN +       PTSUNNY   61  54  77 W15G24    29.85S
FORT WAYNE     LGT RAIN  62  50  64 W23G31    29.87R
HUNTINGTON +   MOSUNNY   64  51  63 NW12G21   29.88R

$$

INZ028-029-035-036-043>045-051>053-212100-
WEST CENTRAL INDIANA

CITY           SKY/WX    TMP DP  RH WIND       PRES   REMARKS
GREENCASTLE +  MOSUNNY   70  48  46 NW14G23   29.93R
LAFAYETTE      CLOUDY    63  50  62 NW13G24   29.95R
TERRE HAUTE    MOSUNNY   73  47  39 NW15G24   29.93R

$$

INZ030>032-037>040-046>048-054>057-064-065-212100-
CENTRAL INDIANA

CITY           SKY/WX    TMP DP  RH WIND       PRES   REMARKS
CP ATTERBURY + MOSUNNY   72  48  43 NW15G24   29.91R
COLUMBUS       PTSUNNY   75  46  35 W16G25    29.91R
FRANKFORT +    MOSUNNY   65  50  57 NW15G31   29.95R
INDIANAPOLIS   PTSUNNY   72  48  42 NW26      29.91R
-EAGLE CREEK   PTSUNNY   69  48  47 NW22G30   29.91R
KOKOMO *+      CLOUDY    64  48  55 NW21G30   29.92R
MARION +       CLOUDY    66  47  50 NW16G24   29.91R
MT COMFORT *+  MOSUNNY   72  36  26 NW17G28   29.91R
SHELBYVILLE    PTSUNNY   75  50  41 NW17G26   29.89R
ZIONSVILLE +   PTSUNNY   68  48  49 NW21G30   29.93R

$$

INZ033-034-041-042-049-050-058-059-212100-
EAST CENTRAL INDIANA

CITY           SKY/WX    TMP DP  RH WIND       PRES   REMARKS
MUNCIE         CLOUDY    65  48  54 NW15G24   29.89R

$$

INZ060-061-067>069-081>083-085>088-212100-
SOUTHWEST INDIANA

CITY           SKY/WX    TMP DP  RH WIND       PRES   REMARKS
EVANSVILLE     SUNNY     78  49  35 NW9G22    29.96S
WASHINGTON +   SUNNY     77  50  38 W15G24    29.93R

$$

INZ062-063-066-070>080-084-089>092-212100-
SOUTH CENTRAL AND SOUTHEAST INDIANA

CITY           SKY/WX    TMP DP  RH WIND       PRES   REMARKS
BLOOMINGTON    MOSUNNY   73  47  39 NW12G22   29.93R
SEYMOUR +      MOSUNNY   79  50  36 W15G22    29.91R

$$




USA.gov is the U.S. government's official web portal to all federal, state and local government web resources and services.